Location: Bailen
(14.1842°N, 120.7958°E)
Time: 18:16:44
(UTC+00:00)

Cosmos 1331 Rocket - Pass Details

Date: 12 January 2026
Orbit: 745 x 773 km, 74.0° (Epoch: 17 February)

Event Time Altitude Azimuth Distance (km) Brightness Sun altitude
Exits shadow 21:02:01 10° 352° (N) 2,291 6.2 -19.6°
Reaches altitude 10° 21:02:01 10° 352° (N) 2,290 6.2 -19.6°
Maximum altitude 21:07:12 73° 77° (ENE) 801 4.2 -18.4°
Drops below altitude 10° 21:12:25 10° 161° (SSE) 2,304 7.0 -17.2°
Sets 21:14:48 0° 163° (SSE) 3,232 7.8 -16.7°
